This is the latest recevied weather packets stored in our database for station/object N0QWM. If no packets are shown the sender has not sent any weather packets the latest 1 day(s).
| Time | Temp. | Humidity | Pressure | Rain* | Wind** | Luminosity | Snow |
|---|---|---|---|---|---|---|---|
| 1778055882 | 20° C | 86% | 1017 hPa | 0 mm | 0 m/s | 0 W/m² | - |
| 1778055578 | 20° C | 86% | 1016.9 hPa | 0 mm | 0.45 m/s, 256° | 0 W/m² | - |
| 1778055277 | 20° C | 86% | 1016.9 hPa | 0 mm | 0.89 m/s, 333° | 0 W/m² | - |
| 1778054973 | 20° C | 86% | 1016.7 hPa | 0 mm | 0 m/s | 0 W/m² | - |
| 1778054670 | 20° C | 86% | 1016.9 hPa | 0 mm | 0.45 m/s, 322° | 0 W/m² | - |
| 1778054368 | 20° C | 85% | 1016.9 hPa | 0 mm | 0 m/s | 0 W/m² | - |
| 1778054065 | 20° C | 85% | 1016.8 hPa | 0 mm | 0.45 m/s, 309° | 0 W/m² | - |
| 1778053769 | 20° C | 85% | 1016.8 hPa | 0 mm | 0.45 m/s, 258° | 0 W/m² | - |
| 1778053459 | 20° C | 85% | 1016.7 hPa | 0 mm | 0 m/s | 0 W/m² | - |
| 1778053156 | 20° C | 84% | 1017 hPa | 0 mm | 0.89 m/s, 270° | 0 W/m² | - |
| 1778052854 | 20° C | 84% | 1016.9 hPa | 0 mm | 0 m/s | 0 W/m² | - |
| 1778052552 | 20° C | 83% | 1016.7 hPa | 0 mm | 0.89 m/s, 313° | 0 W/m² | - |
| 1778052249 | 20° C | 83% | 1016.9 hPa | 0 mm | 0.45 m/s, 257° | 0 W/m² | - |
| 1778051946 | 20° C | 83% | 1017.1 hPa | 0 mm | 0.45 m/s, 294° | 0 W/m² | - |
| 1778051644 | 20° C | 83% | 1017.1 hPa | 0 mm | 0.45 m/s, 292° | 0 W/m² | - |
| 1778051341 | 20° C | 82% | 1017.1 hPa | 0 mm | 0.45 m/s, 275° | 0 W/m² | - |
| 1778051038 | 20.56° C | 82% | 1017.3 hPa | 0 mm | 0.45 m/s, 347° | 0 W/m² | - |
| 1778050734 | 20.56° C | 81% | 1017.2 hPa | 0 mm | 0.89 m/s, 279° | 0 W/m² | - |
| 1778050432 | 20.56° C | 81% | 1017.2 hPa | 0 mm | 0.45 m/s, 37° | 0 W/m² | - |
| 1778050129 | 20.56° C | 81% | 1017.1 hPa | 0 mm | 0.45 m/s, 334° | 0 W/m² | - |
| 1778049824 | 20.56° C | 81% | 1017.1 hPa | 0 mm | 0 m/s | 0 W/m² | - |
| 1778049522 | 20.56° C | 80% | 1017.3 hPa | 0 mm | 0.45 m/s, 316° | 0 W/m² | - |
| 1778049219 | 20.56° C | 80% | 1017.2 hPa | 0 mm | 0 m/s | 0 W/m² | - |
| 1778048917 | 20.56° C | 80% | 1017.2 hPa | 0 mm | 0 m/s | 0 W/m² | - |
| 1778048615 | 20.56° C | 80% | 1017.8 hPa | 0 mm | 0 m/s | 0 W/m² | - |
* Rain latest hour (hover to see other rain measurements)
** Current wind speed in m/s (hover to see current wind gust speed)